DLH5KH EDDM-EKCH

Flight info

Callsign DLH5KH
Flight time 1h 16m
Altitude 36000
Route INPUD3Q INPUD Y102 UPALA M726 LASGA DCT BKD/N0432F380 DCT LUWIL DCT BERIM/N0437F390 DCT MAKEL/N0432F370 N851 GESKA Z711 MONAK
Aircraft A320/M-SDE2E3FGIJ1LORWXYZ/HB1

Departure

Time 2026-04-30 11:35
Airport Munich Airport (EDDM)

Arrival

Time 2026-04-30 12:51
Airport Copenhagen Kastrup Airport (EKCH)
Time Latitude Longitude Altitude Speed Heading
2026-04-30 11:07 48.35643 11.79274 1473 ft 0 kts 263°
2026-04-30 11:26 48.35644 11.79279 1485 ft 3 kts 263°
2026-04-30 11:26 48.35647 11.79319 1473 ft 4 kts 263°
2026-04-30 11:26 48.35649 11.79354 1476 ft 2 kts 263°
2026-04-30 11:27 48.35649 11.79391 1476 ft 4 kts 292°
2026-04-30 11:27 48.35634 11.79420 1473 ft 4 kts 339°
2026-04-30 11:27 48.35610 11.79427 1473 ft 3 kts 353°
2026-04-30 11:27 48.35606 11.79428 1474 ft 0 kts 353°
2026-04-30 11:29 48.35644 11.79421 1476 ft 7 kts 353°
2026-04-30 11:30 48.35782 11.79398 1473 ft 15 kts 353°
2026-04-30 11:30 48.35894 11.79373 1476 ft 17 kts 341°
2026-04-30 11:30 48.36007 11.79329 1485 ft 16 kts 355°
2026-04-30 11:31 48.36086 11.79240 1481 ft 16 kts 269°
2026-04-30 11:31 48.36075 11.79080 1481 ft 16 kts 263°
2026-04-30 11:31 48.36061 11.78893 1478 ft 20 kts 263°
2026-04-30 11:31 48.36045 11.78689 1482 ft 19 kts 262°
2026-04-30 11:32 48.36029 11.78501 1485 ft 17 kts 264°
2026-04-30 11:32 48.36016 11.78328 1479 ft 16 kts 264°
2026-04-30 11:32 48.36005 11.78169 1472 ft 15 kts 263°
2026-04-30 11:33 48.35980 11.77838 1485 ft 22 kts 265°
2026-04-30 11:33 48.35961 11.77593 1473 ft 23 kts 264°
2026-04-30 11:33 48.35945 11.77363 1474 ft 21 kts 264°
2026-04-30 11:33 48.35926 11.77150 1481 ft 20 kts 266°
2026-04-30 11:34 48.35987 11.76989 1478 ft 17 kts 326°
2026-04-30 11:34 48.36104 11.76961 1476 ft 18 kts 354°
2026-04-30 11:34 48.36231 11.76942 1477 ft 19 kts
2026-04-30 11:34 48.36302 11.77085 1485 ft 20 kts 83°
2026-04-30 11:35 48.36335 11.77500 1485 ft 72 kts 83°
2026-04-30 11:35 48.36418 11.78574 1486 ft 131 kts 83°
2026-04-30 11:35 48.36544 11.80066 1867 ft 148 kts 82°
2026-04-30 11:35 48.36663 11.81609 2701 ft 152 kts 84°
2026-04-30 11:36 48.36787 11.83299 3095 ft 174 kts 84°
2026-04-30 11:36 48.36948 11.85205 3544 ft 193 kts 77°
2026-04-30 11:36 48.37705 11.86982 3955 ft 223 kts 38°
2026-04-30 11:36 48.39279 11.87727 4447 ft 256 kts
2026-04-30 11:37 48.41106 11.87425 5238 ft 277 kts 342°
2026-04-30 11:37 48.42667 11.85625 6095 ft 292 kts 309°
2026-04-30 11:37 48.43801 11.83104 7249 ft 289 kts 307°
2026-04-30 11:37 48.45018 11.80695 8279 ft 289 kts 311°
2026-04-30 11:38 48.46316 11.78379 9266 ft 290 kts 313°
2026-04-30 11:38 48.47659 11.76081 10223 ft 293 kts 314°
2026-04-30 11:38 48.49020 11.73771 11050 ft 297 kts 315°
2026-04-30 11:38 48.50401 11.71411 11816 ft 303 kts 315°
2026-04-30 11:39 48.51790 11.69009 12667 ft 305 kts 314°
2026-04-30 11:39 48.53184 11.66573 13515 ft 308 kts 315°
2026-04-30 11:39 48.54584 11.64110 14335 ft 311 kts 315°
2026-04-30 11:39 48.56014 11.61651 15065 ft 312 kts 320°
2026-04-30 11:40 48.57699 11.59613 15757 ft 311 kts 332°
2026-04-30 11:40 48.59695 11.58158 15951 ft 328 kts 343°
2026-04-30 11:40 48.61895 11.56905 16242 ft 344 kts 343°
2026-04-30 11:40 48.64156 11.55622 16846 ft 349 kts 343°
2026-04-30 11:41 48.66442 11.54319 17528 ft 353 kts 343°
2026-04-30 11:41 48.68743 11.52998 18221 ft 356 kts 343°
2026-04-30 11:41 48.71069 11.51655 18871 ft 359 kts 343°
2026-04-30 11:41 48.73410 11.50297 19465 ft 361 kts 343°
2026-04-30 11:42 48.75766 11.48927 20055 ft 364 kts 343°
2026-04-30 11:42 48.78140 11.47543 20647 ft 366 kts 343°
2026-04-30 11:42 48.80527 11.46152 21239 ft 368 kts 343°
2026-04-30 11:42 48.82896 11.44770 21788 ft 370 kts 343°
2026-04-30 11:43 48.85311 11.43362 22309 ft 373 kts 343°
2026-04-30 11:43 48.87753 11.41938 22804 ft 377 kts 343°
2026-04-30 11:43 48.90218 11.40502 23354 ft 380 kts 343°
2026-04-30 11:43 48.92694 11.39059 23896 ft 382 kts 343°
2026-04-30 11:44 48.95187 11.37602 24341 ft 385 kts 343°
2026-04-30 11:44 48.97692 11.36134 24773 ft 388 kts 344°
2026-04-30 11:44 49.00216 11.34653 25196 ft 390 kts 344°
2026-04-30 11:44 49.02760 11.33161 25624 ft 393 kts 344°
2026-04-30 11:45 49.05319 11.31662 26042 ft 395 kts 344°
2026-04-30 11:45 49.07893 11.30153 26465 ft 397 kts 344°
2026-04-30 11:45 49.10479 11.28632 26874 ft 399 kts 345°
2026-04-30 11:45 49.13083 11.27097 27275 ft 402 kts 345°
2026-04-30 11:46 49.15695 11.25555 27680 ft 404 kts 345°
2026-04-30 11:46 49.18327 11.24000 28071 ft 406 kts 345°
2026-04-30 11:46 49.21015 11.22715 28453 ft 402 kts 354°
2026-04-30 11:46 49.23768 11.22164 28856 ft 397 kts
2026-04-30 11:47 49.26527 11.22165 29249 ft 397 kts
2026-04-30 11:47 49.29298 11.22199 29632 ft 399 kts
2026-04-30 11:47 49.32083 11.22233 30009 ft 401 kts
2026-04-30 11:47 49.34881 11.22265 30383 ft 403 kts
2026-04-30 11:48 49.37702 11.22295 30702 ft 405 kts
2026-04-30 11:48 49.40529 11.22319 30990 ft 407 kts
2026-04-30 11:48 49.43343 11.22337 31229 ft 409 kts
2026-04-30 11:48 49.46203 11.22358 31460 ft 412 kts
2026-04-30 11:49 49.49083 11.22379 31720 ft 415 kts
2026-04-30 11:49 49.52015 11.22400 32013 ft 416 kts
2026-04-30 11:49 49.54905 11.22421 32417 ft 415 kts
2026-04-30 11:49 49.57783 11.22436 32822 ft 413 kts
2026-04-30 11:50 49.60657 11.22440 33231 ft 412 kts
2026-04-30 11:50 49.63524 11.22438 33635 ft 411 kts
2026-04-30 11:50 49.66379 11.22434 34013 ft 410 kts
2026-04-30 11:50 49.69192 11.22434 34409 ft 408 kts
2026-04-30 11:51 49.72039 11.22439 34772 ft 407 kts
2026-04-30 11:51 49.74866 11.22447 35118 ft 406 kts
2026-04-30 11:51 49.77690 11.22454 35419 ft 405 kts
2026-04-30 11:51 49.80508 11.22467 35729 ft 405 kts
2026-04-30 11:52 49.83322 11.22485 36036 ft 404 kts
2026-04-30 11:52 49.86133 11.22506 36324 ft 403 kts
2026-04-30 11:52 49.91719 11.22545 36431 ft 398 kts
2026-04-30 11:53 49.97252 11.22575 36436 ft 396 kts
2026-04-30 11:53 50.02773 11.22609 36436 ft 396 kts
2026-04-30 11:54 50.08285 11.22642 36436 ft 396 kts
2026-04-30 11:54 50.13761 11.22673 36432 ft 395 kts
2026-04-30 11:55 50.19247 11.22705 36428 ft 394 kts
2026-04-30 11:55 50.24727 11.22731 36434 ft 394 kts
2026-04-30 11:56 50.30207 11.22764 36430 ft 394 kts
2026-04-30 11:56 50.35685 11.22803 36433 ft 393 kts
2026-04-30 11:57 50.41145 11.23183 36437 ft 392 kts
2026-04-30 11:57 50.46570 11.23890 36445 ft 391 kts
2026-04-30 11:58 50.52005 11.24594 36448 ft 391 kts
2026-04-30 11:58 50.57436 11.25230 36447 ft 391 kts
2026-04-30 11:59 50.62870 11.25842 36454 ft 391 kts
2026-04-30 11:59 50.68312 11.26457 36419 ft 391 kts
2026-04-30 12:00 50.73752 11.27073 36423 ft 392 kts
2026-04-30 12:00 50.79202 11.27690 36431 ft 393 kts
2026-04-30 12:01 50.84653 11.28308 36436 ft 393 kts
2026-04-30 12:01 50.90076 11.28933 36444 ft 393 kts
2026-04-30 12:02 50.95530 11.29560 36447 ft 393 kts
2026-04-30 12:02 51.00994 11.30189 36453 ft 393 kts
2026-04-30 12:03 51.09169 11.31136 36452 ft 393 kts
2026-04-30 12:04 51.13703 11.31663 36456 ft 393 kts
2026-04-30 12:04 51.19160 11.32291 36460 ft 393 kts
2026-04-30 12:05 51.24618 11.32923 36461 ft 393 kts
2026-04-30 12:05 51.30071 11.33565 36464 ft 393 kts
2026-04-30 12:06 51.35527 11.34216 36468 ft 393 kts
2026-04-30 12:06 51.40988 11.34864 36471 ft 393 kts
2026-04-30 12:07 51.46465 11.35499 36477 ft 393 kts
2026-04-30 12:07 51.51896 11.36128 36472 ft 394 kts
2026-04-30 12:08 51.57375 11.36768 36480 ft 394 kts
2026-04-30 12:08 51.62849 11.37419 36489 ft 394 kts
2026-04-30 12:09 51.68327 11.38065 36499 ft 394 kts
2026-04-30 12:09 51.73799 11.38720 36497 ft 394 kts
2026-04-30 12:10 51.79276 11.39379 36509 ft 394 kts
2026-04-30 12:10 51.84715 11.40026 36509 ft 394 kts
2026-04-30 12:11 51.90203 11.40683 36516 ft 395 kts
2026-04-30 12:11 51.95679 11.41344 36507 ft 394 kts
2026-04-30 12:12 52.01156 11.42003 36511 ft 394 kts
2026-04-30 12:12 52.06632 11.42659 36491 ft 395 kts
2026-04-30 12:13 52.12110 11.43314 36493 ft 394 kts
2026-04-30 12:13 52.17558 11.43985 36498 ft 394 kts
2026-04-30 12:14 52.23028 11.44651 36483 ft 394 kts
2026-04-30 12:14 52.28505 11.45310 36483 ft 394 kts
2026-04-30 12:15 52.33977 11.45972 36484 ft 394 kts
2026-04-30 12:15 52.39464 11.46640 36464 ft 395 kts
2026-04-30 12:16 52.44962 11.47316 36465 ft 396 kts
2026-04-30 12:16 52.50467 11.47995 36466 ft 397 kts
2026-04-30 12:17 52.58713 11.49036 36475 ft 398 kts
2026-04-30 12:17 52.64239 11.49713 36475 ft 398 kts
2026-04-30 12:18 52.69773 11.50388 36475 ft 398 kts
2026-04-30 12:18 52.75316 11.51078 36477 ft 399 kts
2026-04-30 12:19 52.80858 11.51785 36482 ft 399 kts
2026-04-30 12:19 52.86406 11.52488 36484 ft 400 kts
2026-04-30 12:20 52.91922 11.53170 36483 ft 400 kts
2026-04-30 12:20 52.97476 11.53856 36488 ft 400 kts
2026-04-30 12:21 53.03034 11.54477 36489 ft 401 kts
2026-04-30 12:21 53.08606 11.53498 36490 ft 404 kts 355°
2026-04-30 12:22 53.14177 11.52254 36492 ft 404 kts 355°
2026-04-30 12:22 53.19751 11.51009 36493 ft 404 kts 355°
2026-04-30 12:23 53.25325 11.49777 36496 ft 404 kts 355°
2026-04-30 12:23 53.30899 11.48545 36497 ft 404 kts 355°
2026-04-30 12:24 53.36475 11.47299 36494 ft 404 kts 355°
2026-04-30 12:24 53.42012 11.46091 36495 ft 403 kts 358°
2026-04-30 12:25 53.47592 11.46085 36491 ft 401 kts
2026-04-30 12:25 53.53178 11.46241 36491 ft 401 kts
2026-04-30 12:26 53.58762 11.46392 36464 ft 401 kts
2026-04-30 12:26 53.64357 11.46545 36465 ft 403 kts
2026-04-30 12:27 53.69970 11.46701 36477 ft 404 kts
2026-04-30 12:27 53.75493 11.48059 36480 ft 401 kts 16°
2026-04-30 12:28 53.80894 11.50516 36486 ft 402 kts 16°
2026-04-30 12:28 53.86303 11.52974 36491 ft 403 kts 16°
2026-04-30 12:29 53.91728 11.55437 36499 ft 403 kts 16°
2026-04-30 12:29 53.97114 11.57891 36492 ft 403 kts 16°
2026-04-30 12:30 54.02542 11.60390 36504 ft 404 kts 16°
2026-04-30 12:30 54.07971 11.62872 36508 ft 404 kts 15°
2026-04-30 12:31 54.13405 11.65365 36511 ft 404 kts 16°
2026-04-30 12:31 54.18865 11.67888 35778 ft 411 kts 16°
2026-04-30 12:32 54.21679 11.69192 34603 ft 424 kts 16°
2026-04-30 12:32 54.24527 11.70512 33812 ft 423 kts 16°
2026-04-30 12:32 54.27355 11.71823 33156 ft 419 kts 16°
2026-04-30 12:32 54.30126 11.73112 32550 ft 414 kts 16°
2026-04-30 12:33 54.32899 11.74403 31952 ft 410 kts 16°
2026-04-30 12:33 54.35651 11.75682 31363 ft 405 kts 16°
2026-04-30 12:33 54.38325 11.76926 30796 ft 401 kts 16°
2026-04-30 12:33 54.41006 11.78174 30187 ft 397 kts 16°
2026-04-30 12:34 54.43654 11.79407 29549 ft 392 kts 16°
2026-04-30 12:34 54.46207 11.80986 28917 ft 388 kts 25°
2026-04-30 12:34 54.48648 11.82909 28291 ft 384 kts 25°
2026-04-30 12:34 54.51077 11.84825 27683 ft 380 kts 25°
2026-04-30 12:35 54.53472 11.86712 27108 ft 376 kts 25°
2026-04-30 12:35 54.55843 11.88581 26527 ft 373 kts 25°
2026-04-30 12:35 54.58193 11.90432 26002 ft 369 kts 25°
2026-04-30 12:35 54.60507 11.92255 25528 ft 363 kts 25°
2026-04-30 12:36 54.62849 11.93850 24993 ft 360 kts 19°
2026-04-30 12:36 54.65231 11.95154 24448 ft 357 kts 19°
2026-04-30 12:36 54.67584 11.96446 23838 ft 351 kts 19°
2026-04-30 12:36 54.69897 11.97720 22795 ft 347 kts 20°
2026-04-30 12:37 54.72180 11.98989 21818 ft 342 kts 20°
2026-04-30 12:37 54.74436 12.00247 20901 ft 338 kts 20°
2026-04-30 12:37 54.76659 12.01487 20019 ft 333 kts 20°
2026-04-30 12:37 54.78857 12.02710 19164 ft 329 kts 20°
2026-04-30 12:38 54.81029 12.03917 18274 ft 326 kts 20°
2026-04-30 12:38 54.83175 12.05112 17365 ft 322 kts 20°
2026-04-30 12:38 54.85273 12.06280 16499 ft 319 kts 20°
2026-04-30 12:38 54.87378 12.07450 15636 ft 316 kts 20°
2026-04-30 12:39 54.89447 12.08597 15112 ft 305 kts 21°
2026-04-30 12:39 54.91411 12.09684 14961 ft 290 kts 21°
2026-04-30 12:39 54.93317 12.10748 14689 ft 286 kts 21°
2026-04-30 12:39 54.95208 12.11812 14367 ft 284 kts 21°
2026-04-30 12:40 54.97084 12.12870 13985 ft 283 kts 21°
2026-04-30 12:40 54.98957 12.13924 13599 ft 282 kts 20°
2026-04-30 12:40 55.00822 12.14972 13218 ft 281 kts 20°
2026-04-30 12:40 55.02683 12.16020 12848 ft 280 kts 20°
2026-04-30 12:41 55.04536 12.17065 12473 ft 279 kts 20°
2026-04-30 12:41 55.06382 12.18107 12090 ft 278 kts 20°
2026-04-30 12:41 55.08219 12.19147 11710 ft 277 kts 20°
2026-04-30 12:41 55.10049 12.20183 11334 ft 276 kts 20°
2026-04-30 12:42 55.11876 12.21217 10963 ft 275 kts 19°
2026-04-30 12:42 55.13694 12.22248 10590 ft 275 kts 19°
2026-04-30 12:42 55.15508 12.23277 10199 ft 274 kts 19°
2026-04-30 12:42 55.17319 12.24303 9773 ft 273 kts 19°
2026-04-30 12:43 55.19122 12.25324 9375 ft 271 kts 19°
2026-04-30 12:43 55.20307 12.25997 9082 ft 268 kts 18°
2026-04-30 12:43 55.22075 12.27001 8400 ft 268 kts 18°
2026-04-30 12:43 55.24419 12.28332 7887 ft 266 kts 18°
2026-04-30 12:44 55.25607 12.29007 7624 ft 265 kts 18°
2026-04-30 12:44 55.27352 12.29999 7209 ft 262 kts 18°
2026-04-30 12:44 55.29074 12.30984 6521 ft 259 kts 17°
2026-04-30 12:44 55.30789 12.31966 5775 ft 259 kts 17°
2026-04-30 12:45 55.32499 12.32941 5072 ft 258 kts 17°
2026-04-30 12:45 55.34216 12.33921 4515 ft 260 kts 16°
2026-04-30 12:45 55.35929 12.34900 4154 ft 256 kts 16°
2026-04-30 12:45 55.37586 12.35851 3976 ft 245 kts 16°
2026-04-30 12:46 55.39141 12.36748 3857 ft 232 kts 16°
2026-04-30 12:46 55.40640 12.37612 3752 ft 220 kts 16°
2026-04-30 12:46 55.42059 12.38430 3660 ft 209 kts 15°
2026-04-30 12:46 55.43417 12.39213 3571 ft 202 kts 16°
2026-04-30 12:47 55.44739 12.39976 3479 ft 199 kts 15°
2026-04-30 12:47 55.46058 12.40734 3389 ft 199 kts 15°
2026-04-30 12:47 55.47270 12.41929 3154 ft 204 kts 38°
2026-04-30 12:47 55.48332 12.43590 2883 ft 205 kts 37°
2026-04-30 12:48 55.49407 12.45254 2605 ft 206 kts 37°
2026-04-30 12:48 55.50484 12.46910 2321 ft 204 kts 37°
2026-04-30 12:48 55.51539 12.48532 2044 ft 198 kts 37°
2026-04-30 12:48 55.52555 12.50094 1806 ft 187 kts 36°
2026-04-30 12:49 55.53471 12.51523 1565 ft 164 kts 37°
2026-04-30 12:49 55.54248 12.52762 1473 ft 142 kts 36°
2026-04-30 12:49 55.54979 12.53889 1264 ft 138 kts 37°
2026-04-30 12:49 55.55714 12.54997 1072 ft 139 kts 35°
2026-04-30 12:50 55.56424 12.56105 872 ft 133 kts 36°
2026-04-30 12:50 55.57128 12.57163 676 ft 132 kts 34°
2026-04-30 12:50 55.57819 12.58172 496 ft 128 kts 38°
2026-04-30 12:50 55.58480 12.59200 299 ft 125 kts 39°
2026-04-30 12:51 55.59139 12.60222 113 ft 124 kts 38°
2026-04-30 12:51 55.59757 12.61169 23 ft 104 kts 40°
2026-04-30 12:51 55.60174 12.61817 27 ft 63 kts 41°
2026-04-30 12:51 55.60464 12.62264 26 ft 49 kts 41°
2026-04-30 12:52 55.60681 12.62598 29 ft 33 kts 41°
2026-04-30 12:52 55.60862 12.62817 25 ft 30 kts 21°
2026-04-30 12:52 55.61013 12.62879 24 ft 22 kts 12°
2026-04-30 12:52 55.61162 12.62967 25 ft 23 kts 38°
2026-04-30 12:53 55.61285 12.63159 24 ft 24 kts 41°
2026-04-30 12:53 55.61400 12.63335 24 ft 21 kts 41°
2026-04-30 12:53 55.61515 12.63512 25 ft 23 kts 41°
2026-04-30 12:53 55.61638 12.63702 24 ft 24 kts 41°
2026-04-30 12:54 55.61761 12.63892 24 ft 22 kts 42°
2026-04-30 12:54 55.61872 12.64061 24 ft 22 kts 35°
2026-04-30 12:54 55.62009 12.64184 24 ft 22 kts 25°
2026-04-30 12:54 55.62152 12.64304 23 ft 24 kts 25°
2026-04-30 12:55 55.62288 12.64399 23 ft 17 kts 14°
2026-04-30 12:55 55.62395 12.64446 24 ft 16 kts
2026-04-30 12:55 55.62479 12.64320 24 ft 18 kts 304°
2026-04-30 12:55 55.62561 12.64206 24 ft 14 kts
2026-04-30 12:56 55.62624 12.64137 24 ft 9 kts 302°
2026-04-30 12:56 55.62667 12.64124 24 ft 7 kts 24°
2026-04-30 12:56 55.62701 12.64164 25 ft 3 kts 32°
2026-04-30 12:56 55.62702 12.64166 25 ft 0 kts 32°
2026-04-30 13:03 55.62702 12.64167 24 ft 0 kts 32°